{"data":{"norad_id":56025,"intl_designator":"2023-042AR","name":"STARLINK-5766","alt_names":[],"object_type":"PAYLOAD","status":"ACTIVE","operator":null,"country":"US","launch_date":"2023-03-24","launch_site_code":"AFETR","launch_vehicle":null,"mission":null,"orbit_class":"UNKNOWN","rcs_meters":null,"size_class":null,"mass_kg":null,"dimensions":null,"purposes":["comms"],"wikipedia_slug":null,"has_3d_model":false,"image_url":null,"decayed_at":null,"tle_current":{"epoch":"2026-09-20T14:57:54.980064Z","epoch_age_seconds":95519,"freshness":"FRESH","line1":"1 56025U 23042AR  26263.62355301 -.00000833  00000+0 -20734-4 0  9998","line2":"2 56025  43.0022  24.7172 0001383 277.2707  82.7987 15.27575953192845","mean_motion":15.27575953,"eccentricity":0.0001383,"inclination_deg":43.0022,"raan_deg":24.7172,"arg_perigee_deg":277.2707,"mean_anomaly_deg":82.7987,"bstar":-2.0734e-5,"rev_number":19284,"period_min":94.266998454119,"perigee_km":482.11231052728,"apogee_km":484.01011795334,"semimajor_km":6861.1982142403,"source":"CELESTRAK","updated_at":"2026-09-21T09:00:33.357654Z"}}}